| time (UTC) | temp F | wind direction | speed knots | gust knots | rain 1hr in | rain 24hr in | rain mn in | humidity % | barometer mb |
| 20260510173212 | 58 | 289 | 3.5 | 10.4 | 0.00 | 0.12 | 0.00 | 31 | 1018.5 |
| 20260510172210 | 57 | 259 | 1.7 | 7.0 | 0.00 | 0.12 | 0.00 | 35 | 1018.4 |
| 20260510171225 | 57 | 302 | 2.6 | 7.0 | 0.00 | 0.12 | 0.00 | 33 | 1018.6 |
| 20260510170211 | 57 | 322 | 0.9 | 6.1 | 0.00 | 0.12 | 0.00 | 33 | 1018.6 |
| 20260510165224 | 57 | 298 | 3.5 | 7.8 | 0.00 | 0.12 | 0.00 | 33 | 1018.6 |
| 20260510164222 | 57 | 269 | 1.7 | 7.0 | 0.00 | 0.12 | 0.00 | 35 | 1018.6 |
| 20260510163216 | 57 | 309 | 0.9 | 5.2 | 0.00 | 0.12 | 0.00 | 32 | 1018.5 |
| 20260510162228 | 57 | 94 | 0.9 | 6.1 | 0.00 | 0.12 | 0.00 | 30 | 1018.5 |
| 20260510161220 | 57 | 298 | 0.9 | 7.8 | 0.00 | 0.12 | 0.00 | 34 | 1018.5 |
| 20260510160211 | 57 | 293 | 2.6 | 7.0 | 0.00 | 0.12 | 0.00 | 33 | 1018.4 |
| 20260510155225 | 57 | 291 | 0.9 | 7.0 | 0.00 | 0.12 | 0.00 | 34 | 1018.4 |
| 20260510154218 | 57 | 295 | 1.7 | 6.1 | 0.00 | 0.12 | 0.00 | 35 | 1018.3 |
| 20260510153214 | 57 | 298 | 1.7 | 8.7 | 0.00 | 0.12 | 0.00 | 36 | 1018.2 |
| 20260510152248 | 57 | 343 | 2.6 | 7.0 | 0.00 | 0.12 | 0.00 | 34 | 1018.1 |
| 20260510151220 | 56 | 308 | 0.9 | 7.8 | 0.00 | 0.12 | 0.00 | 37 | 1017.9 |
| 20260510150247 | 56 | 319 | 0.9 | 6.1 | 0.00 | 0.12 | 0.00 | 38 | 1017.8 |
| 20260510145219 | 55 | 335 | 0.9 | 5.2 | 0.00 | 0.12 | 0.00 | 40 | 1017.7 |
| 20260510144237 | 54 | 319 | 1.7 | 6.1 | 0.00 | 0.12 | 0.00 | 41 | 1017.6 |
| 20260510143209 | 54 | 7 | 1.7 | 7.0 | 0.00 | 0.12 | 0.00 | 40 | 1017.6 |
| 20260510142243 | 54 | 277 | 0.9 | 2.6 | 0.00 | 0.12 | 0.00 | 42 | 1017.4 |
| 20260510141214 | 53 | 359 | 0.0 | 3.5 | 0.00 | 0.12 | 0.00 | 45 | 1017.4 |
| 20260510140224 | 52 | 349 | 1.7 | 4.3 | 0.00 | 0.12 | 0.00 | 45 | 1017.4 |
| 20260510135217 | 51 | 256 | 0.9 | 4.3 | 0.00 | 0.12 | 0.00 | 47 | 1017.4 |
| 20260510134210 | 51 | 300 | 1.7 | 5.2 | 0.00 | 0.12 | 0.00 | 46 | 1017.4 |
| 20260510133228 | 50 | 272 | 0.0 | 2.6 | 0.00 | 0.12 | 0.00 | 48 | 1017.4 |
| 20260510132221 | 50 | 303 | 0.9 | 5.2 | 0.00 | 0.12 | 0.00 | 50 | 1017.3 |
| 20260510131232 | 49 | 298 | 2.6 | 4.3 | 0.00 | 0.12 | 0.00 | 50 | 1017.2 |
| 20260510130219 | 49 | 18 | 0.9 | 3.5 | 0.00 | 0.12 | 0.00 | 53 | 1017.1 |
| 20260510124210 | 48 | 324 | 0.9 | 2.6 | 0.00 | 0.12 | 0.00 | 54 | 1016.9 |
| 20260510123223 | 47 | 340 | 0.0 | 3.5 | 0.00 | 0.12 | 0.00 | 56 | 1016.8 |
| 20260510122217 | 47 | 300 | 0.9 | 2.6 | 0.00 | 0.12 | 0.00 | 57 | 1016.7 |
| 20260510121234 | 46 | 264 | 0.9 | 2.6 | 0.00 | 0.12 | 0.00 | 58 | 1016.6 |
| 20260510120220 | 46 | 19 | 0.9 | 2.6 | 0.00 | 0.12 | 0.00 | 60 | 1016.5 |
| 20260510115214 | 45 | 298 | 0.0 | 1.7 | 0.00 | 0.12 | 0.00 | 61 | 1016.3 |
| 20260510114210 | 44 | 305 | 0.0 | 2.6 | 0.00 | 0.12 | 0.00 | 63 | 1016.2 |
| 20260510113243 | 42 | 333 | 0.0 | 0.9 | 0.00 | 0.12 | 0.00 | 68 | 1016.1 |
| 20260510112216 | 0 | 0.0 | 0.0 | 0.00 | 0.12 | 0.00 | 1016.0 | ||
| 20260510111210 | 0 | 0.0 | 0.0 | 0.00 | 0.12 | 0.00 | 1015.9 | ||
| 20260510110224 | 0 | 0.0 | 0.0 | 0.00 | 0.12 | 0.00 | 1015.7 | ||
| 20260510105243 | 0 | 0.0 | 0.0 | 0.00 | 0.12 | 0.00 | 1015.6 | ||
| 20260510104240 | 0 | 0.0 | 0.0 | 0.00 | 0.12 | 0.00 | 1015.5 | ||
| 20260510103257 | 0 | 0.0 | 0.0 | 0.00 | 0.12 | 0.00 | 1015.3 | ||
| 20260510102217 | 0 | 0.0 | 0.0 | 0.00 | 0.12 | 0.00 | 1015.3 | ||
| 20260510101309 | 0 | 0.0 | 0.0 | 0.00 | 0.12 | 0.00 | 1015.0 | ||
| 20260510100228 | 0 | 0.0 | 0.0 | 0.00 | 0.12 | 0.00 | 1015.0 | ||
| 20260510095241 | 0 | 0.0 | 0.0 | 0.00 | 0.12 | 0.00 | 1014.9 | ||
| 20260510094221 | 40 | 312 | 0.0 | 0.0 | 0.00 | 0.12 | 0.00 | 71 | 1014.8 |
| 20260510093221 | 42 | 312 | 0.0 | 0.0 | 0.00 | 0.12 | 0.00 | 70 | 1014.8 |
| 20260510092214 | 44 | 312 | 0.0 | 0.9 | 0.00 | 0.12 | 0.00 | 69 | 1014.6 |
| 20260510091247 | 44 | 313 | 0.0 | 0.9 | 0.00 | 0.12 | 0.00 | 67 | 1014.7 |
| 20260510090218 | 45 | 326 | 0.0 | 2.6 | 0.00 | 0.12 | 0.00 | 65 | 1014.5 |
| 20260510085209 | 45 | 337 | 0.9 | 5.2 | 0.00 | 0.12 | 0.00 | 65 | 1014.1 |
| 20260510084223 | 45 | 331 | 0.9 | 3.5 | 0.00 | 0.12 | 0.00 | 64 | 1013.9 |
| 20260510083217 | 45 | 267 | 0.9 | 2.6 | 0.00 | 0.12 | 0.00 | 63 | 1013.7 |
| 20260510082234 | 45 | 308 | 0.0 | 2.6 | 0.00 | 0.12 | 0.00 | 63 | 1013.5 |
| 20260510081226 | 46 | 312 | 0.0 | 2.6 | 0.00 | 0.12 | 0.00 | 62 | 1013.3 |
| 20260510080214 | 46 | 321 | 1.7 | 4.3 | 0.00 | 0.12 | 0.00 | 61 | 1013.0 |
| 20260510075248 | 46 | 357 | 0.9 | 3.5 | 0.00 | 0.12 | 0.00 | 62 | 1012.8 |
| 20260510074241 | 46 | 315 | 0.9 | 1.7 | 0.00 | 0.12 | 0.00 | 64 | 1012.5 |
| 20260510073217 | 47 | 324 | 0.0 | 1.7 | 0.00 | 0.12 | 0.00 | 64 | 1012.2 |
| 20260510072211 | 47 | 307 | 0.0 | 1.7 | 0.00 | 0.12 | 0.00 | 62 | 1012.0 |
| 20260510071223 | 47 | 260 | 0.0 | 4.3 | 0.00 | 0.12 | 0.00 | 62 | 1012.0 |
| 20260510070235 | 47 | 314 | 0.0 | 1.7 | 0.00 | 0.12 | 0.00 | 66 | 1011.8 |
| 20260510065225 | 47 | 330 | 0.0 | 1.7 | 0.00 | 0.12 | 0.00 | 67 | 1011.7 |
| 20260510064222 | 47 | 305 | 0.0 | 0.9 | 0.00 | 0.12 | 0.00 | 68 | 1011.7 |
| 20260510063215 | 46 | 255 | 0.0 | 0.0 | 0.00 | 0.12 | 0.00 | 71 | 1011.6 |
| 20260510062212 | 46 | 113 | 0.0 | 0.0 | 0.00 | 0.12 | 0.00 | 73 | 1011.6 |
| 20260510061225 | 46 | 113 | 0.0 | 0.0 | 0.00 | 0.12 | 0.00 | 73 | 1011.5 |
| 20260510060231 | 47 | 113 | 0.0 | 0.0 | 0.00 | 0.12 | 0.00 | 73 | 1011.4 |
| 20260510055244 | 48 | 113 | 0.0 | 0.0 | 0.00 | 0.12 | 0.00 | 72 | 1011.3 |
| 20260510054220 | 48 | 113 | 0.0 | 0.0 | 0.00 | 0.12 | 0.00 | 71 | 1011.1 |
| 20260510053213 | 48 | 113 | 0.0 | 0.9 | 0.00 | 0.12 | 0.00 | 70 | 1010.8 |
| 20260510052227 | 49 | 113 | 0.0 | 0.0 | 0.00 | 0.12 | 0.00 | 68 | 1010.7 |
| 20260510051221 | 50 | 113 | 0.0 | 0.0 | 0.00 | 0.12 | 0.00 | 65 | 1010.4 |
| 20260510050232 | 51 | 113 | 0.0 | 0.9 | 0.00 | 0.12 | 0.00 | 64 | 1010.2 |
| 20260510045224 | 52 | 319 | 0.0 | 3.5 | 0.00 | 0.12 | 0.00 | 63 | 1010.1 |
| 20260510044218 | 51 | 307 | 0.0 | 1.7 | 0.00 | 0.12 | 0.00 | 63 | 1009.8 |
| 20260510043215 | 52 | 312 | 0.0 | 0.0 | 0.00 | 0.12 | 0.00 | 62 | 1009.7 |
| 20260510042208 | 53 | 312 | 0.0 | 0.0 | 0.00 | 0.12 | 0.00 | 60 | 1009.5 |
| 20260510041222 | 54 | 312 | 0.0 | 1.7 | 0.00 | 0.12 | 0.00 | 57 | 1009.4 |
| 20260510040229 | 55 | 305 | 0.0 | 2.6 | 0.00 | 0.12 | 0.12 | 56 | 1009.4 |
| 20260510035246 | 56 | 300 | 0.9 | 3.5 | 0.00 | 0.12 | 0.12 | 55 | 1009.4 |
| 20260510034218 | 56 | 302 | 0.9 | 2.6 | 0.00 | 0.12 | 0.12 | 54 | 1009.2 |
| 20260510033212 | 57 | 288 | 0.9 | 3.5 | 0.00 | 0.12 | 0.12 | 52 | 1008.9 |
| 20260510032225 | 57 | 319 | 1.7 | 6.1 | 0.00 | 0.12 | 0.12 | 51 | 1008.9 |
| 20260510031224 | 58 | 302 | 0.9 | 6.1 | 0.00 | 0.12 | 0.12 | 51 | 1008.7 |
| 20260510030211 | 58 | 294 | 0.9 | 7.8 | 0.00 | 0.12 | 0.12 | 50 | 1008.6 |
| 20260510025224 | 59 | 359 | 0.9 | 7.8 | 0.00 | 0.12 | 0.12 | 48 | 1008.5 |
| 20260510024238 | 59 | 264 | 3.5 | 8.7 | 0.00 | 0.12 | 0.12 | 47 | 1008.2 |
| 20260510023234 | 60 | 323 | 3.5 | 7.8 | 0.00 | 0.12 | 0.12 | 46 | 1008.1 |
| 20260510022227 | 60 | 295 | 1.7 | 11.3 | 0.00 | 0.12 | 0.12 | 46 | 1007.9 |
| 20260510021239 | 61 | 343 | 2.6 | 6.1 | 0.00 | 0.12 | 0.12 | 46 | 1007.6 |
| 20260510020227 | 62 | 16 | 2.6 | 12.2 | 0.00 | 0.12 | 0.12 | 46 | 1007.1 |
| 20260510015244 | 62 | 289 | 2.6 | 5.2 | 0.00 | 0.12 | 0.12 | 51 | 1006.7 |
| 20260510014215 | 62 | 330 | 0.9 | 2.6 | 0.00 | 0.12 | 0.12 | 52 | 1006.4 |
| 20260510013249 | 62 | 271 | 0.9 | 1.7 | 0.00 | 0.12 | 0.12 | 52 | 1006.2 |
| 20260510012221 | 61 | 297 | 0.0 | 2.6 | 0.00 | 0.12 | 0.12 | 53 | 1005.8 |
| 20260510011218 | 62 | 278 | 0.0 | 0.9 | 0.00 | 0.12 | 0.12 | 52 | 1005.4 |
| 20260510010225 | 62 | 278 | 0.0 | 0.9 | 0.00 | 0.12 | 0.12 | 50 | 1005.3 |
| 20260510005219 | 63 | 278 | 0.0 | 0.0 | 0.00 | 0.12 | 0.12 | 49 | 1005.0 |
| 20260510004223 | 64 | 277 | 0.0 | 2.6 | 0.00 | 0.12 | 0.12 | 47 | 1004.9 |
| 20260510003217 | 65 | 298 | 0.9 | 5.2 | 0.00 | 0.12 | 0.12 | 45 | 1004.7 |
| 20260510002210 | 65 | 238 | 0.9 | 5.2 | 0.00 | 0.12 | 0.12 | 44 | 1004.6 |
| 20260510001224 | 66 | 305 | 2.6 | 8.7 | 0.00 | 0.12 | 0.12 | 42 | 1004.5 |
| 20260510000215 | 66 | 300 | 2.6 | 7.0 | 0.00 | 0.12 | 0.12 | 42 | 1004.2 |
| 20260509235228 | 67 | 292 | 2.6 | 8.7 | 0.00 | 0.12 | 0.12 | 41 | 1004.3 |
| 20260509234223 | 68 | 267 | 3.5 | 10.4 | 0.00 | 0.12 | 0.12 | 39 | 1004.1 |
| 20260509233219 | 68 | 263 | 3.5 | 8.7 | 0.00 | 0.12 | 0.12 | 39 | 1004.2 |
| 20260509232234 | 69 | 280 | 3.5 | 8.7 | 0.00 | 0.12 | 0.12 | 39 | 1004.0 |
| 20260509231225 | 69 | 328 | 1.7 | 12.2 | 0.00 | 0.12 | 0.12 | 40 | 1004.1 |
| 20260509230212 | 69 | 290 | 6.1 | 10.4 | 0.00 | 0.12 | 0.12 | 38 | 1004.1 |
| 20260509225230 | 69 | 301 | 5.2 | 13.9 | 0.00 | 0.12 | 0.12 | 37 | 1004.0 |
| 20260509224222 | 69 | 319 | 5.2 | 12.2 | 0.00 | 0.12 | 0.12 | 37 | 1003.8 |
| 20260509223216 | 69 | 297 | 6.1 | 13.9 | 0.00 | 0.12 | 0.12 | 37 | 1003.7 |
| 20260509222209 | 70 | 270 | 5.2 | 13.0 | 0.00 | 0.12 | 0.12 | 36 | 1003.5 |
| 20260509221222 | 70 | 295 | 6.1 | 16.5 | 0.00 | 0.12 | 0.12 | 36 | 1003.2 |
| 20260509220227 | 70 | 297 | 3.5 | 19.1 | 0.00 | 0.12 | 0.12 | 36 | 1003.1 |
| 20260509215219 | 71 | 253 | 5.2 | 9.6 | 0.00 | 0.12 | 0.12 | 35 | 1003.0 |
| 20260509214249 | 70 | 290 | 2.6 | 15.6 | 0.00 | 0.12 | 0.12 | 38 | 1002.8 |
| 20260509213223 | 70 | 276 | 5.2 | 12.2 | 0.00 | 0.12 | 0.12 | 38 | 1002.7 |
| 20260509212214 | 70 | 269 | 3.5 | 12.2 | 0.00 | 0.12 | 0.12 | 39 | 1002.7 |
| 20260509211223 | 69 | 262 | 2.6 | 7.8 | 0.00 | 0.12 | 0.12 | 43 | 1002.6 |
| 20260509210248 | 69 | 312 | 3.5 | 7.8 | 0.00 | 0.12 | 0.12 | 43 | 1002.7 |
| 20260509205224 | 68 | 312 | 2.6 | 9.6 | 0.00 | 0.12 | 0.12 | 46 | 1002.8 |
| 20260509204216 | 67 | 269 | 5.2 | 10.4 | 0.00 | 0.12 | 0.12 | 45 | 1003.0 |
| 20260509203228 | 67 | 274 | 3.5 | 9.6 | 0.00 | 0.12 | 0.12 | 49 | 1003.1 |
| 20260509202224 | 66 | 298 | 2.6 | 9.6 | 0.01 | 0.12 | 0.12 | 53 | 1003.3 |
| 20260509201235 | 65 | 276 | 3.5 | 11.3 | 0.01 | 0.12 | 0.12 | 58 | 1003.5 |
| 20260509200217 | 60 | 280 | 4.3 | 8.7 | 0.01 | 0.12 | 0.12 | 90 | 1003.4 |
| 20260509195228 | 60 | 271 | 4.3 | 9.6 | 0.07 | 0.12 | 0.12 | 91 | 1003.3 |
| 20260509194222 | 60 | 300 | 3.5 | 6.1 | 0.12 | 0.12 | 0.12 | 94 | 1003.3 |
| 20260509193214 | 59 | 298 | 1.7 | 5.2 | 0.12 | 0.12 | 0.12 | 94 | 1003.5 |
| 20260509192223 | 57 | 263 | 0.9 | 4.3 | 0.11 | 0.11 | 0.11 | 94 | 1003.6 |
| 20260509191215 | 55 | 269 | 0.9 | 2.6 | 0.11 | 0.11 | 0.11 | 93 | 1003.7 |
| 20260509190222 | 55 | 307 | 2.6 | 13.0 | 0.11 | 0.11 | 0.11 | 89 | 1003.7 |
| 20260509185213 | 65 | 305 | 7.8 | 15.6 | 0.04 | 0.04 | 0.04 | 61 | 1003.5 |
| 20260509184224 | 67 | 305 | 2.6 | 7.8 | 0.00 | 0.00 | 0.00 | 51 | 1002.6 |
| 20260509183216 | 67 | 246 | 2.6 | 7.8 | 0.00 | 0.00 | 0.00 | 52 | 1002.5 |
| 20260509182211 | 68 | 228 | 1.7 | 6.1 | 0.00 | 0.00 | 0.00 | 53 | 1002.4 |
| 20260509181221 | 69 | 256 | 0.9 | 8.7 | 0.00 | 0.00 | 0.00 | 54 | 1002.5 |
| 20260509180225 | 68 | 250 | 0.9 | 7.8 | 0.00 | 0.00 | 0.00 | 56 | 1002.6 |
| 20260509175221 | 68 | 279 | 1.7 | 9.6 | 0.00 | 0.00 | 0.00 | 54 | 1002.7 |